www.pogodaiklimat.ru

Погода и климат >> Архив погоды >> Россия >> Приморский край >> Рудная Пристань


АРХИВ ПОГОДЫ в Рудной Пристани

Время (UTC), дата Ветер
(напр.,м/с)
 
Видим.   Явления Облачность Т
(С)
Тd
(С)
f
(%)
Тe
(С)
Тes
(С)
Комфортность P
(гПа)
Po
(гПа)
Тmin
(С)
Tmax
(С)
R
(мм)
R24
(мм)
S
(см)
12 17.01 З 7-14
{18}
20 км ясно -18.2 -31.4 30 -29 -29 1010.8 1006.3
15 17.01 ЮВ 3
{21}
20 км ясно -17.5 -30.8 30 -25 -25 1011.9 1007.3
18 17.01 ЮЗ 3
{18}
20 км ясно -17.0 -30.2 31 -24 -24 1014.4 1009.8
21 17.01 ЮЗ 4-12
{15}
20 км ясно -16.3 -29.1 32 -24 -24 1014.8 1010.3 -19.6
00 18.01 З 4
{13}
50 км ясно -13.7 -27.7 30 -21 -20 1016.4 1011.9
03 18.01 СЗ 2
{12}
50 км ясно -8.5 -26.5 22 -12 -8 1016.3 1011.9
06 18.01 З 9-20
{20}
20 км ясно -7.1 -25.9 21 -16 -16 1014.9 1010.5
09 18.01 ЮЗ 7-14
{20}
20 км ясно -9.2 -26.6 23 -18 -18 1017.5 1013.0 -6.9
12 18.01 ЮЗ 6-13
{15}
20 км ясно -10.2 -25.5 27 -18 -18 1019.2 1014.8
15 18.01 З 7-13
{15}
20 км ясно -9.5 -25.0 27 -18 -18 1019.4 1014.9
18 18.01 ЮЗ 3
{17}
20 км ясно -9.1 -24.8 27 -14 -14 1019.3 1014.8
21 18.01 СЗ 2
{13}
20 км ясно -9.5 -25.1 27 -14 -14 1019.6 1015.1 -10.2
00 19.01 З 5 20 км ясно -8.3 -25.1 24 -15 -15 1019.6 1015.2 -10.5
03 19.01 З 3
{10}
20 км ясно -2.8 -26.9 14 -7 -3 1017.6 1013.2
06 19.01 З 3 20 км ясно -0.4 -20.9 20 -4 -3 1016.3 1012.0
09 19.01 З 1 20 км 3/3 600 м
[Sc]
-4.2 -26.6 16 -5 -5 1016.7 1012.3 +0.1
12 19.01 СЗ 2 20 км 8/0
[Ac lent Ci]
-5.9 -27.1 17 -9 -9 1016.8 1012.4
15 19.01 ЮЗ 2 20 км 9/3 600 м
[Sc Cs]
-7.4 -26.6 20 -11 -11 1014.7 1010.3
18 19.01 З 2 20 км 9/3 600 м
[Sc Cs]
-8.4 -25.5 24 -12 -12 1013.0 1008.6
21 19.01 СЗ 2 20 км 10/3 600 м
[Sc Ci sp]
-7.8 -24.1 26 -12 -12 1011.4 1007.0 -12.2
00 20.01 З 2 20 км 8/3 600 м
[Sc Ac lent Cc]
-8.7 -23.7 29 -13 -12 1010.3 1005.8
03 20.01 З 2
{11}
20 км 6/3 600 м
[Sc Ci sp]
-6.2 -22.2 27 -10 -7 1007.6 1003.2
06 20.01 З 3
{15}
20 км 8/3 600 м
[Cb cap Ac lent Ci sp]
-7.5 -23.1 27 -13 -12 1006.5 1002.2
09 20.01 З 5-11
{13}
20 км 4/3 600 м
[Sc diur, vesp Ci sp]
-11.2 -25.8 29 -19 -19 1007.8 1003.3 -5.3
12 20.01 З 3
{15}
20 км 8/4 600 м
[Sc Ci sp]
-12.2 -26.8 28 -18 -18 1008.8 1004.4
15 20.01 ЮЗ 1
{15}
20 км 4/3 600 м
[Sc Ci sp]
-12.7 -26.4 31 -15 -15 1008.8 1004.3
18 20.01 З 4
{10}
20 км 4/3 600 м
[Sc Ci sp]
-12.2 -25.7 31 -19 -19 1008.8 1004.3
21 20.01 ЮЗ 1 20 км 1/1 600 м
[Sc]
-13.2 -25.5 35 -16 -16 1008.5 1004.0 -13.2
00 21.01 З 5
{10}
20 км 1/0
[Ac lent]
-12.6 -26.0 32 -21 -20 1009.4 1004.9 -13.4
03 21.01 З 5-11
{13}
20 км ясно -9.4 -25.6 25 -17 -14 1008.0 1003.6
06 21.01 З 4-10
{17}
20 км ясно -7.5 -24.7 24 -13 -13 1006.9 1002.6
09 21.01 З 3
{13}
20 км ясно -10.0 -23.1 33 -16 -16 1008.6 1004.2 -7.3
12 21.01 ЮЗ 5-11
{11}
20 км ясно -11.1 -22.6 38 -19 -19 1008.8 1004.4
15 21.01 З 4
{11}
20 км ясно -10.4 -23.9 32 -17 -17 1009.1 1004.7
18 21.01 ЮЗ 7-14
{14}
20 км ясно -10.4 -24.7 30 -19 -19 1009.2 1004.9
21 21.01 ЮЗ 3
{15}
20 км ясно -10.4 -25.1 29 -16 -16 1009.4 1005.0 -11.9
00 22.01 ЮЗ 3
{14}
20 км ясно -8.9 -24.5 27 -14 -13 1010.4 1006.1
03 22.01 ЮЗ 4
{15}
20 км 3/0
[Ac lent Ci fib]
-3.9 -22.5 22 -9 -6 1009.6 1005.4
06 22.01 ЮВ 1 20 км 8/3 600 м
[Sc Ac trans]
-2.4 -20.5 23 -3 -3 1008.8 1004.6
09 22.01 З 2 20 км 8/3 600 м
[Sc Ac trans]
-4.9 -20.5 28 -8 -8 1010.0 1005.7 -1.7
12 22.01 З 2 20 км ясно -11.3 -20.8 45 -16 -16 1010.0 1005.6
15 22.01 З 2 20 км 6/0
[Ac lent Ci sp]
-13.6 -19.7 60 -18 -18 1009.9 1005.5
18 22.01 З 2 20 км 6/0
[Ac lent Ci sp]
-13.2 -18.8 63 -18 -18 1008.6 1004.2
21 22.01 СЗ 1 20 км 3/0
[Ac trans]
-11.5 -13.8 83 -14 -14 1007.7 1003.4 -14.8
00 23.01 З 2 20 км 3/0
[Ac lent]
-7.2 -14.8 55 -11 -10 1008.0 1003.7 -15.0
03 23.01 З 3
{10}
20 км 3/1 600 м
[Cb cap Ac lent]
-3.6 -18.3 31 -8 -5 1007.6 1003.3
06 23.01 З 6-12
{15}
20 км 4/3 600 м
[Cb cap Ci sp]
-4.9 -19.7 30 -12 -11 1008.3 1004.1
09 23.01 З 6-14
{15}
20 км 3/1 600 м
[Sc diur, vesp Ci sp]
-7.9 -20.2 37 -16 -16 1010.7 1006.4 -2.8
12 23.01 З 7-17
{17}
20 км 4/0
[Ac lent Ci fib]
-10.0 -22.3 36 -19 -19 1012.1 1007.7
15 23.01 З 7-15
{19}
20 км 3/0
[Ac lent]
-11.2 -22.9 37 -20 -20 1012.6 1008.3
18 23.01 З 6-15
{18}
20 км 3/0
[Ac lent]
-11.6 -23.4 37 -20 -20 1013.8 1009.4
21 23.01 З 8-18
{18}
20 км ясно -12.1 -23.3 39 -22 -22 1015.1 1010.7 -12.1
00 24.01 З 12-25
{25}
20 км ясно -11.5 -23.0 38 -23 -23 1015.9 1011.5 -12.2
03 24.01 З 7-14
{25}
20 км ясно -6.6 -21.4 30 -14 -13 1016.7 1012.3
06 24.01 З 6-14
{17}
20 км ясно -4.8 -20.7 28 -12 -11 1016.4 1012.1
09 24.01 З 6-11
{14}
20 км ясно -7.3 -20.4 34 -15 -15 1018.3 1013.9 -4.8

 

Местоположение метеостанции Рудная Пристань (Приморский край, Россия): широта 44.37 долгота 135.80 высота над уровнем моря 34 м.

В архиве по умолчанию представлена погода в Рудной Пристани за последнюю неделю. Архивные данные за месяц целиком и за предыдущие месяцы, начиная с января 2011 года, Вы можете получить, выбрав интересующий диапазон дат из раскрывающегося списка и нажав кнопку "Ввод!".


*Определитесь, кто Вы:
робот инопланетянин человек

Внимание! Время в таблицах - всемирное. Для получения местного времени необходимо прибавить поправку, которая равна 10 ч.

Смотрите также архив погоды в соседних городах и на ближайших метеорологических станциях:

Погода в Богополе (Приморский край, Россия) (35 км)
Погода в Кавалерово (Приморский край, Россия) (65 км)
Погода в Ольге (Приморский край, Россия) (80 км)
Погода в Дальнегорске (Приморский край, Россия) (93 км)
Погода в Тернее (Приморский край, Россия) (94 км)
Погода в Мельничном (Приморский край, Россия) (122 км)
Погода в Лучегорске (Приморский край, Россия) (151 км)
Погода в Малой Кеме (Приморский край, Россия) (154 км)
Погода в Чугуевке (Приморский край, Россия) (161 км)
Погода в Малиново (Приморский край, Россия) (172 км)

Пояснения к столбцам:

Ветер - указаны скорость ветра в м/с - средняя за 10 мин, порывы в срок и между сроками (в фигурных скобках) и направление, откуда дует ветер: С - северный, СВ - северо-восточный, В - восточный, ЮВ - юго-восточный, Ю - южный, ЮЗ - юго-западный, З - западный, СЗ - северо-западный.
Видимость - горизонтальная дальность видимости в метрах или километрах. При видимости от 1 до 10 км при отсутствии осадков обычно наблюдается дымка, при ухудшении видимости до 1 км и менее - туман. В сухую погоду видимость может ухудшаться дымом, пылью или мглою.
Явления - указаны атмосферные явления, наблюдавшиеся в срок или в последний час перед сроком; фигурными скобками обозначены явления, наблюдавшиеся между сроками (за 1-3 часа до срока); квадратными скобками обозначены град или гололедные отложения с указанием их диаметра в мм.
Облачность - указаны через наклонную черту общая и нижняя облачность в баллах и высота нижней границы облаков в метрах; квадратными скобками обозначены формы облаков: Ci - перистые, Cs - перисто-слоистые, Cc - перисто-кучевые, Ac - высококучевые, As - высокослоистые, Sc - слоисто-кучевые, Ns - слоисто-дождевые, Cu - кучевые, Cb - кучево-дождевые. Подробнее классификацию облаков см. в Атласе облаков (PDF).
T - Температура воздуха - температура, измеренная на высоте 2 м над землей.
Td - Температура точки росы - температура, при понижении до которой содержащийся в воздухе водяной пар достигнет насыщения.
f - Относительная влажность воздуха - влажноcть воздуха, измеренная на высоте 2 м над землей.
Te - Эффективная температура - температура, которую ощущает одетый по сезону человек в тени. Характеристика душности погоды. При расчете учитывается влияние влажности воздуха и скорости ветра на теплоощущения человека.
Tes - Эффективная температура на солнце - температура, которую ощущает человек, с поправкой на солнечный нагрев. Характеристика знойности погоды. Зависит от высоты солнца над горизонтом, облачности и скорости ветра. Ночью, в пасмурную погоду, а также при ветре 12 м/с и более поправка равна нулю.
P - Атмосферное давление - приведенное к уровню моря атмосферное давление.
Po - Атмосферное давление - измеренное на уровне метеостанции атмосферное давление.
Tmin - Минимальная температура - минимум температуры воздуха на высоте 2 м над землей.
Tmax - Максимальная температура - максимум температуры воздуха на высоте 2 м над землей.
R - Количество осадков - Количество выпавших осадков за период времени, мм. При наведении курсора мыши на число - период времени, за который выпало указанное количество осадков.
R24 - Количество осадков - Количество выпавших осадков за 24 часа, мм.
S - Снежный покров - Высота снежного покрова, см. При наведении курсора мыши на число - состояние снежного покрова и степень покрытия местности в баллах.